Denver Centennial, CO

5:21 AM MDT on July 28, 2017 (GMT -0600)
Centennial

Weather History for KAPA - December, 2011

Change the Weather History Date:

Tuesday, December 20, 2011

  Actual Average Record
Temperature  
Mean Temperature 29 °F -  
Max Temperature 39 °F 39 °F 60 °F (2003)
Min Temperature 18 °F 16 °F -2 °F (1998)
Degree Days  
Heating Degree Days 36    
Month to date heating degree days 776  
Moisture  
Dew Point 19 °F    
Average Humidity 76    
Maximum Humidity 92    
Minimum Humidity 59    
Precipitation  
Precipitation T in - - ()
Month to date precipitation 0.14  
Sea Level Pressure  
Sea Level Pressure 30.04 in    
Wind  
Wind Speed 7 mph (SSE)    
Max Wind Speed 16 mph    
Max Gust Speed 18 mph    
Visibility 7 miles    
Events Snow    
Averages and records for this station are not official NWS values.
T = Trace of Precipitation, MM = Missing Value Source: NWS Daily Summary

Daily Weather History Graph

Daily Weather History Graph

Search for Another Location

Airport or City:

Trip Planner

Search our weather history database for the weather conditions in past years. The results will help you decide how hot, cold, wet, or windy it might be!

Date:

Astronomy

Dec. 20, 2011 Rise Set
Actual Time 7:15 AM MST 4:38 PM MST
Civil Twilight 6:45 AM MST 5:08 PM MST
Nautical Twilight 6:11 AM MST 5:42 PM MST
Astronomical Twilight 5:38 AM MST 6:15 PM MST
Moon 2:40 AM MST (12/20) 1:15 PM MST (12/20)
Length of Visible Light 10h 23m
Length of Day
9h 22m
Waning Crescent, 20% of the Moon is Illuminated
Dec 20
Waning Crescent
Dec 24
New
Dec 31
First Quarter
Jan 9
Full
Jan 16
Last Quarter

Hourly Weather History & Observations

Time (MST) Temp. Windchill Dew Point Humidity Pressure Visibility Wind Dir Wind Speed Gust Speed Precip Events Conditions
12:53 AM 21.9 °F 15.7 °F 17.1 °F 82% 30.27 in 10.0 mi SSW 4.6 mph - N/A   Overcast
1:37 AM 21.2 °F 11.7 °F 17.6 °F 86% 30.10 in 2.0 mi South 8.1 mph - 0.00 in Snow Light Snow
1:43 AM 21.2 °F 10.1 °F 17.6 °F 86% 30.10 in 1.5 mi South 10.4 mph - 0.00 in Snow Light Snow
1:51 AM 21.2 °F 10.9 °F 17.6 °F 86% 30.10 in 3.0 mi South 9.2 mph - 0.00 in Snow Light Snow
1:53 AM 21.0 °F 11.4 °F 18.0 °F 88% 30.25 in 4.0 mi South 8.1 mph - 0.00 in Snow Light Snow
2:29 AM 21.2 °F 10.9 °F 17.6 °F 86% 30.09 in 1.8 mi South 9.2 mph - 0.00 in Snow Light Snow
2:53 AM 21.9 °F 11.7 °F 19.0 °F 89% 30.22 in 1.8 mi South 9.2 mph - 0.00 in Snow Light Snow
3:22 AM 21.2 °F 10.9 °F 19.4 °F 93% 30.05 in 2.0 mi South 9.2 mph - 0.00 in Snow Light Snow
3:33 AM 21.2 °F 10.9 °F 19.4 °F 93% 30.05 in 1.5 mi SSE 9.2 mph - 0.00 in Snow Light Snow
3:53 AM 21.9 °F 11.7 °F 19.0 °F 89% 30.20 in 2.5 mi SSE 9.2 mph - 0.00 in Snow Light Snow
4:06 AM 21.2 °F 9.5 °F 19.4 °F 93% 30.03 in 3.0 mi SSE 11.5 mph - 0.00 in Snow Light Snow
4:53 AM 21.9 °F 8.2 °F 19.0 °F 89% 30.16 in 3.0 mi SE 16.1 mph - 0.00 in   Overcast
5:53 AM 19.9 °F 10.1 °F 17.1 °F 89% 30.15 in 10.0 mi South 8.1 mph - 0.00 in   Scattered Clouds
6:53 AM 19.0 °F 10.0 °F 16.0 °F 88% 30.14 in 10.0 mi South 6.9 mph - N/A   Partly Cloudy
7:53 AM 21.0 °F 14.6 °F 18.0 °F 88% 30.13 in 10.0 mi South 4.6 mph - N/A   Partly Cloudy
8:53 AM 21.9 °F - 18.0 °F 85% 30.12 in 10.0 mi Calm Calm - N/A   Partly Cloudy
9:53 AM 25.0 °F 19.3 °F 19.9 °F 81% 30.09 in 10.0 mi SE 4.6 mph - N/A   Partly Cloudy
10:53 AM 28.0 °F 24.2 °F 21.9 °F 78% 30.05 in 10.0 mi SSE 3.5 mph - N/A   Partly Cloudy
11:53 AM 33.1 °F - 23.0 °F 66% 29.98 in 10.0 mi Calm Calm - N/A   Partly Cloudy
12:53 PM 36.0 °F 33.3 °F 25.0 °F 64% 29.91 in 10.0 mi ESE 3.5 mph - N/A   Partly Cloudy
2:53 PM 37.9 °F 32.7 °F 26.1 °F 62% 29.84 in 10.0 mi SE 6.9 mph - N/A   Partly Cloudy
4:53 PM 33.1 °F 28.7 °F 23.0 °F 66% 29.86 in 10.0 mi South 4.6 mph - N/A   Clear
5:53 PM 30.9 °F 26.2 °F 21.9 °F 69% 29.88 in 10.0 mi SW 4.6 mph - N/A   Clear
6:53 PM 27.0 °F 20.5 °F 19.9 °F 75% 29.89 in 10.0 mi South 5.8 mph - N/A   Clear
7:53 PM 24.1 °F 14.4 °F 19.0 °F 81% 29.89 in 10.0 mi SE 9.2 mph - N/A   Clear
8:53 PM 24.1 °F 15.2 °F 18.0 °F 77% 29.89 in 10.0 mi SE 8.1 mph - N/A   Clear
9:53 PM 24.1 °F 18.2 °F 18.0 °F 77% 29.89 in 10.0 mi SSE 4.6 mph - N/A   Clear
10:53 PM 27.0 °F 19.5 °F 19.0 °F 72% 29.87 in 10.0 mi South 6.9 mph - N/A   Clear